Content
SEND FEEDBACK

Daily
Averages
Monthly
Summary
Mexico

CANCUN, QUINTANA ROO


Home > North America > Mexico > Quintana Roo
Elevation: 9 meters     Latitude: 21 09N     Longitude: 086 49W

WEATHER
 
SELECT A DAY
Number of Records: 166,296;   Date Range: 1/1/95 - 10/18/14
 
SHARE

PRINT THIS DATA

[ ← Previous Day ]
WEATHER ALMANAC - 22 JULY, 2014
[ Next Day → ]
[ °F ]   °C
Weather ElementAverageHighLow
Temperature29.1 °C32 °C (12:46 pm)26 °C (12:45 am)
Dewpoint23.9 °C25 °C (9:47 pm)22 °C (4:47 am)
Humidity74.6 %94 % (2:43 am)55 % (1:41 pm)
Barometer1016.3 hPa1017.6 hPa (9:49 pm)1013.5 hPa (4:41 pm)
Wind Speed10 km/h22.2 km/h (10:40 am)
Weather ElementAverage
Visibility11.3 km
Wind DirectionE (94.6 °)

Weather ElementTotal
Precipitation---
Cooling Degree Days10.7 (Base 18.3)
Growing Degree Days19 (Base 10)
Averaged from 24 records on 22 July, 2014
WEATHER CONDITIONS BREAKOUT
WIND DIRECTION BREAKOUT
WEATHER BY HOUR - 22 JULY, 2014
[ °F ]   °C
Local TimeTemperatureDewpointHumidityBarometerVisibilityWind DirectionWind SpeedGust SpeedPrecipitationEventsConditions
12:45 AM27 °C25 °C89 %1014.6 hPa11.3 kmCalmClear
1:44 AM26 °C24 °C89 %1016.3 hPa11.3 kmSE (130°)9.3 km/hClear
2:43 AM26 °C25 °C94 %1015.6 hPa11.3 kmSE (130°)9.3 km/hClear
3:48 AM26 °C24 °C89 %1013.5 hPa11.3 kmCalmPartly Cloudy
4:47 AM26 °C24 °C89 %1015.6 hPa11.3 kmESE (120°)9.3 km/hScattered Clouds
5:46 AM27 °C24 °C84 %1015.9 hPa11.3 kmSE (140°)11.1 km/hScattered Clouds
6:45 AM27 °C24 °C84 %1014.9 hPa11.3 kmESE (110°)9.3 km/hPartly Cloudy
7:42 AM29 °C24 °C74 %1016.9 hPa11.3 kmESE (110°)9.3 km/hPartly Cloudy
8:46 AM30 °C23 °C66 %1017.3 hPa11.3 kmESE (120°)13 km/hPartly Cloudy
9:50 AM31 °C23 °C62 %1015.9 hPa11.3 kmCalmPartly Cloudy
10:45 AM31 °C24 °C66 %1017.3 hPa11.3 kmEast (100°)11.1 km/hClear
11:51 AM32 °C24 °C62 %1017.6 hPa11.3 kmEast (90°)13 km/hScattered Clouds
12:43 PM32 °C24 °C62 %1016.6 hPa11.3 kmESE (110°)18.5 km/hMostly Cloudy
1:47 PM32 °C23 °C59 %1016.6 hPa11.3 kmEast (80°)20.4 km/hMostly Cloudy
2:42 PM32 °C23 °C59 %1016.6 hPa11.3 kmSE (130°)22.2 km/hMostly Cloudy
3:43 PM32 °C22 °C55 %1015.6 hPa11.3 kmSE (140°)20.4 km/hMostly Cloudy
4:42 PM31 °C22 °C58 %1016.3 hPa11.3 kmEast (100°)14.8 km/hMostly Cloudy
5:41 PM30 °C24 °C70 %1015.9 hPa11.3 kmEast (100°)13 km/hMostly Cloudy
6:42 PM29 °C24 °C74 %1015.9 hPa11.3 kmEast (100°)11.1 km/hMostly Cloudy
7:41 PM29 °C24 °C74 %1016.6 hPa11.3 kmEast (100°)5.6 km/hMostly Cloudy
8:48 PM28 °C24 °C79 %1017.3 hPa11.3 kmEast (100°)5.6 km/hScattered Clouds
9:45 PM28 °C25 °C84 %1016.6 hPa11.3 kmEast (90°)3.7 km/hScattered Clouds
10:47 PM28 °C25 °C84 %1017.3 hPa11.3 kmEast (80°)3.7 km/hScattered Clouds
11:45 PM28 °C25 °C84 %1017.3 hPa11.3 kmEast (90°)3.7 km/hScattered Clouds
Hourly data recorded from MMUN, located 0 kilometers away from Cancun, Quintana Roo







STORIES FROM OUR PARTNERS